Alabaster, AL

9:26 PM CST on February 05, 2016 (GMT -0600)
Shelby County

Weather History for KEET - March, 2013

Change the Weather History Date:

Friday, March 1, 2013

  Actual Average Record
Temperature  
Mean Temperature 39 °F 52 °F  
Max Temperature 44 °F 63 °F 77 °F (1976)
Min Temperature 34 °F 41 °F 14 °F (1968)
Degree Days  
Heating Degree Days 26 13  
Month to date heating degree days 26 13  
Since 1 July heating degree days 1848 2142  
Moisture  
Dew Point 27 °F    
Average Humidity 62    
Maximum Humidity 75    
Minimum Humidity 49    
Precipitation  
Precipitation 0.00 in 0.16 in 1.04 in (1950)
Month to date precipitation 0.00 0.16  
Year to date precipitation 15.49 11.24  
Snow  
Snow 0.00 in - - ()
Month to date snowfall 0.0  
Since 1 July snowfall 0.9  
Snow Depth 0.00 in    
Sea Level Pressure  
Sea Level Pressure 30.07 in    
Wind  
Wind Speed 7 mph (WNW)    
Max Wind Speed 16 mph    
Max Gust Speed 21 mph    
Visibility 9 miles    
Events      
T = Trace of Precipitation, MM = Missing Value Source: NWS Daily Summary

Daily Weather History Graph

Daily Weather History Graph

Search for Another Location

Airport or City:

Trip Planner

Search our weather history database for the weather conditions in past years. The results will help you decide how hot, cold, wet, or windy it might be!

Date:

Astronomy

Mar. 01, 2013 Rise Set
Actual Time 6:14 AM CST 5:44 PM CST
Civil Twilight 5:50 AM CST 6:09 PM CST
Nautical Twilight 5:21 AM CST 6:37 PM CST
Astronomical Twilight 4:52 AM CST 7:06 PM CST
Moon 10:00 PM CST (3/1) 8:16 AM CST (3/1)
Length of Visible Light 12h 19m
Length of Day
11h 29m
Waning Gibbous, 83% of the Moon is Illuminated
Mar 1
Waning Gibbous
Mar 4
Last Quarter
Mar 11
New
Mar 19
First Quarter
Mar 27
Full

Hourly Weather History & Observations

Time (CST) Temp. Windchill Dew Point Humidity Pressure Visibility Wind Dir Wind Speed Gust Speed Precip Events Conditions
12:53 AM 39.0 °F 34.0 °F 25.0 °F 57% 30.06 in 10.0 mi NNW 6.9 mph 17.3 mph N/A   Overcast
1:53 AM 39.0 °F 34.8 °F 25.0 °F 57% 30.05 in 10.0 mi NNW 5.8 mph - N/A   Overcast
2:53 AM 39.0 °F 35.7 °F 26.1 °F 60% 30.05 in 10.0 mi WNW 4.6 mph - N/A   Overcast
3:53 AM 37.0 °F 34.5 °F 27.0 °F 67% 30.04 in 10.0 mi WNW 3.5 mph - N/A   Scattered Clouds
6:53 AM 35.1 °F 32.2 °F 28.9 °F 78% 30.07 in 7.0 mi NW 3.5 mph - N/A   Partly Cloudy
8:53 AM 39.9 °F 34.5 °F 30.0 °F 68% 30.10 in 7.0 mi WNW 8.1 mph - N/A   Mostly Cloudy
9:53 AM 42.1 °F 37.1 °F 27.0 °F 55% 30.09 in 8.0 mi NW 8.1 mph - N/A   Overcast
10:53 AM 43.0 °F 37.7 °F 27.0 °F 53% 30.08 in 9.0 mi WNW 9.2 mph - N/A   Overcast
11:53 AM 43.0 °F 37.2 °F 27.0 °F 53% 30.07 in 8.0 mi NW 10.4 mph - N/A   Overcast
12:53 PM 43.0 °F 37.7 °F 27.0 °F 53% 30.05 in 8.0 mi WSW 9.2 mph - N/A   Overcast
1:53 PM 43.0 °F 39.5 °F 28.0 °F 56% 30.04 in 8.0 mi NW 5.8 mph - N/A   Overcast
2:53 PM 44.1 °F 38.6 °F 27.0 °F 51% 30.03 in 9.0 mi NW 10.4 mph 16.1 mph N/A   Overcast
3:53 PM 43.0 °F 37.2 °F 26.1 °F 51% 30.03 in 10.0 mi West 10.4 mph - N/A   Overcast
4:53 PM 41.0 °F 34.7 °F 26.1 °F 55% 30.04 in 10.0 mi WNW 10.4 mph - N/A   Overcast
5:53 PM 39.9 °F 35.1 °F 27.0 °F 60% 30.06 in 10.0 mi WNW 6.9 mph - N/A   Overcast
6:53 PM 39.0 °F 33.4 °F 26.1 °F 60% 30.08 in 10.0 mi WNW 8.1 mph - N/A   Overcast
7:53 PM 37.9 °F 31.5 °F 27.0 °F 65% 30.09 in 10.0 mi WNW 9.2 mph 16.1 mph N/A   Overcast
8:53 PM 37.0 °F 32.4 °F 28.0 °F 70% 30.10 in 10.0 mi NW 5.8 mph - N/A   Overcast
9:53 PM 37.0 °F 31.6 °F 28.0 °F 70% 30.10 in 10.0 mi WNW 6.9 mph - N/A   Overcast
10:53 PM 37.0 °F 32.4 °F 27.0 °F 67% 30.09 in 10.0 mi WNW 5.8 mph - N/A   Overcast
11:53 PM 36.0 °F 29.6 °F 27.0 °F 70% 30.09 in 9.0 mi WNW 8.1 mph - N/A   Overcast